COSMOS 1275 DEB, 42133

Orbit data source: Space-Track

COSMOS 1275 DEB, 42133 is space debris in LEO originally from a launch on Thu, 04 Jun 1981 UTC launched from the Plesetsk Missile And Space Complex (PKMTR). Debris objects in space refer to the collection of defunct objects orbiting the Earth. Examples of debris include non-operational satellites, rocket bodies, and fragments generated from explosions, collisions, or faulty payload assembly.

Loading next visibility...
Identifier
42133, 1981-053QV
Orbit
LEO
Country
Flag of CISCIS
Related business
Manufacturer
Unknown
Mission
Spacecraft
Bus & Motor
Unknown
Mass
Unknown
Launch date (UTC)
1981-06-04 (45 years ago)
Launch vehicle
Unknown
Launch site
Plesetsk Missile And Space Complex (PKMTR)
Object type
Payload
Rocket body
Debris
Shape & HBR
Unknown shape, 0.1 m
Radar Cross Section
Small (<0.1 m²)

Expand to show TLE details & history
Last TLE update: 3 days ago

TLE from 3 days ago
0 COSMOS 1275 DEB
1 42133U 81053QV  26261.83850213  .00000794  00000-0  94789-3 0  9997
2 42133  83.1290 304.4760 0161658 283.6620  74.6573 13.60805056133010
Epoch: 2026-09-18T20:07Z
TLE epoch observation values (Epoch: 2026-09-18T20:07:26.584Z)
Latitude
-0.00006°
Longitude
4.85958°
Altitude
1,005.761 km
Speed
7.364 km/s
True Right ascension
20h 17m 54s
True Declination
0° 00' 00"
Sunlit
Object was in full shadow at epoch
Visualization orbit readout
Latitude
Unknown
Longitude
Unknown
Altitude
Unknown
Speed
Unknown
Apparent Right ascension
Unknown
Apparent Declination
Unknown
Sunlit
N/A
Visualization observer readout
Local Sidereal Time
08:17:47
Azimuth
Unknown
Elevation
Unknown
Doppler factor
Unknown
Orbital elements
Apogee altitude
1,149.685 km
Perigee altitude
910.171 km
Semi-major axis
7,408.065 km
Eccentricity
0.01617
Inclination
83.129°
RAAN
304.476°
Arg. of periapsis
283.662°
True anomaly
76.45305°
Mean anomaly
74.6573°
Eccentric anomaly
75.55425°
Mean motion
3.40397 °/min
Orbital period
105.76 mins
BSTAR
0.00094789
Loading maneuver chart data...
Computing Atmospheric mass density...

Documentation

Showing up to 5 results
|